Modesto, CA

6:47 AM PST on February 06, 2016 (GMT -0800)
Modesto City-County-Sham

Weather History for KMOD - January, 2013

Change the Weather History Date:

Wednesday, January 23, 2013

  Actual Average Record
Temperature  
Mean Temperature 50 °F -  
Max Temperature 56 °F 57 °F 69 °F (1959)
Min Temperature 43 °F 41 °F 21 °F (1937)
Degree Days  
Heating Degree Days 15 17  
Month to date heating degree days 502 408  
Since 1 July heating degree days 1364 1305  
Cooling Degree Days 0 0  
Month to date cooling degree days 0 0  
Year to date cooling degree days 0 0  
Moisture  
Dew Point 45 °F    
Average Humidity 79    
Maximum Humidity 96    
Minimum Humidity 61    
Precipitation  
Precipitation T in 0.08 in 1.16 in (2000)
Month to date precipitation 1.13 1.91  
Year to date precipitation 1.13 1.91  
Since 1 July precipitation 7.01  
Snow  
Snow 0.00 in - 0.00 in (2002)
Month to date snowfall 0.0  
Since 1 July snowfall 0.0  
Snow Depth -    
Sea Level Pressure  
Sea Level Pressure 30.05 in    
Wind  
Wind Speed 4 mph (WNW)    
Max Wind Speed 12 mph    
Max Gust Speed 14 mph    
Visibility 3 miles    
Events Rain    
T = Trace of Precipitation, MM = Missing Value Source: NWS Daily Summary

Daily Weather History Graph

Daily Weather History Graph

Search for Another Location

Airport or City:

Trip Planner

Search our weather history database for the weather conditions in past years. The results will help you decide how hot, cold, wet, or windy it might be!

Date:

Astronomy

Jan. 23, 2013 Rise Set
Actual Time 7:13 AM PST 5:18 PM PST
Civil Twilight 6:45 AM PST 5:46 PM PST
Nautical Twilight 6:13 AM PST 6:18 PM PST
Astronomical Twilight 5:42 AM PST 6:49 PM PST
Moon 2:33 PM PST (1/23) 4:28 AM PST (1/23)
Length of Visible Light 11h 00m
Length of Day
10h 04m
Waxing Gibbous, 90% of the Moon is Illuminated
Jan 23
Waxing Gibbous
Jan 26
Full
Feb 3
Last Quarter
Feb 9
New
Feb 17
First Quarter

Hourly Weather History & Observations

Time (PST) Temp. Windchill Dew Point Humidity Pressure Visibility Wind Dir Wind Speed Gust Speed Precip Events Conditions
12:53 AM 45.0 °F - 41.0 °F 86% 30.05 in 3.0 mi Calm Calm - N/A   Clear
1:53 AM 43.0 °F 40.3 °F 41.0 °F 93% 30.05 in 3.0 mi East 4.6 mph - N/A   Clear
2:53 AM 44.1 °F - 42.1 °F 93% 30.03 in 3.0 mi Calm Calm - N/A   Clear
3:53 AM 43.0 °F 40.3 °F 41.0 °F 93% 30.02 in 3.0 mi ESE 4.6 mph - N/A   Clear
4:53 AM 44.1 °F - 41.0 °F 89% 30.01 in 4.0 mi Calm Calm - N/A   Clear
5:53 AM 44.1 °F - 41.0 °F 89% 29.99 in 4.0 mi Calm Calm - N/A   Clear
6:53 AM 44.1 °F 42.5 °F 39.9 °F 85% 30.00 in 6.0 mi ESE 3.5 mph - N/A   Clear
7:53 AM 46.0 °F 42.5 °F 39.9 °F 79% 30.02 in 5.0 mi ESE 6.9 mph - N/A   Haze
8:53 AM 48.0 °F - 42.1 °F 80% 30.04 in 3.0 mi Calm Calm - N/A   Haze
9:53 AM 50.0 °F - 43.0 °F 77% 30.05 in 3.0 mi East 5.8 mph - N/A   Haze
10:53 AM 52.0 °F - 42.1 °F 69% 30.07 in 3.0 mi Variable 3.5 mph - N/A   Haze
11:53 AM 55.0 °F - 42.1 °F 62% 30.06 in 5.0 mi South 3.5 mph - N/A   Haze
12:53 PM 55.0 °F - 43.0 °F 64% 30.05 in 3.0 mi WSW 3.5 mph - N/A   Haze
1:53 PM - - - N/A% 30.02 in 3.0 mi West 3.5 mph - N/A   Unknown
2:53 PM 55.0 °F - 46.0 °F 72% 30.04 in 4.0 mi Calm Calm - N/A   Haze
3:48 PM 53.6 °F - 48.2 °F 82% 30.02 in 2.5 mi WNW 8.1 mph - 0.00 in   Haze
3:53 PM 53.1 °F - 48.0 °F 83% 30.02 in 2.0 mi WNW 6.9 mph - 0.00 in   Haze
4:20 PM 51.8 °F - 48.2 °F 88% 30.01 in 1.8 mi NW 6.9 mph - N/A   Overcast
4:28 PM 51.8 °F - 48.2 °F 88% 30.01 in 2.0 mi Variable 3.5 mph - N/A   Overcast
4:53 PM 52.0 °F - 46.9 °F 83% 30.02 in 2.0 mi East 9.2 mph - N/A   Haze
5:53 PM 51.1 °F - 46.9 °F 86% 30.05 in 3.0 mi West 11.5 mph - N/A   Overcast
6:53 PM 50.0 °F - 46.0 °F 86% 30.08 in 3.0 mi WNW 6.9 mph - N/A   Overcast
7:53 PM 50.0 °F - 46.0 °F 86% 30.09 in 3.0 mi NNW 8.1 mph - 0.00 in Rain Light Rain
8:53 PM 50.0 °F - 46.9 °F 89% 30.06 in 3.0 mi North 5.8 mph - 0.00 in   Mostly Cloudy
9:51 PM 48.2 °F - 46.4 °F 93% 30.09 in 2.5 mi NW 4.6 mph - N/A   Overcast
9:53 PM 48.9 °F - 46.9 °F 93% 30.09 in 2.5 mi WNW 5.8 mph - N/A   Mostly Cloudy
10:31 PM 48.2 °F - 46.4 °F 93% 30.08 in 3.0 mi West 8.1 mph - N/A   Overcast
10:39 PM 48.2 °F - 46.4 °F 93% 30.08 in 2.5 mi West 9.2 mph - N/A   Overcast
10:53 PM 48.9 °F - 46.9 °F 93% 30.09 in 2.5 mi WNW 10.4 mph - N/A   Overcast
11:08 PM 48.2 °F - 46.4 °F 93% 30.09 in 3.0 mi West 10.4 mph - N/A   Overcast
11:53 PM 48.9 °F - 46.9 °F 93% 30.08 in 3.0 mi NW 8.1 mph - N/A   Overcast